Volver al catálogo

STARLINK-35414

ActivoComunicacionesSSO
NORAD 65798·PAYLOAD·🇺🇸 United States

Lanzado Sep 26, 2025 desde Vandenberg Space Force Base

Loading…

Próximos Pases (próximas 24 horas)

TLE

ActualizadoSource: CelesTrak SupGP

Época: Sep 15, 2026, 02:37 UTC

1 65798C 25218H   26258.10951389  .00008624  00000+0  26768-3 0  2581
2 65798  97.2843 115.6209 0001770  99.4191 191.8261 15.33439129    11

Sigue STARLINK-35414 en tiempo real con AllMySat

Download on the App Store